{"data":{"norad_id":68870,"intl_designator":"2026-095G","name":"KUIPER-00437","alt_names":[],"object_type":"PAYLOAD","status":"ACTIVE","operator":null,"country":"US","launch_date":"2026-04-28","launch_site_code":"AFETR","launch_vehicle":null,"mission":null,"orbit_class":"UNKNOWN","rcs_meters":null,"size_class":null,"mass_kg":null,"dimensions":null,"purposes":[],"wikipedia_slug":null,"has_3d_model":false,"image_url":null,"decayed_at":null,"tle_current":{"epoch":"2026-05-24T22:53:21.789888Z","epoch_age_seconds":76229,"freshness":"FRESH","line1":"1 68870U 26095G   26144.95372442  .00023763  00000+0  65054-3 0  9997","line2":"2 68870  51.8808 354.8198 0007477 208.8532 151.2042 15.37189566  4158","mean_motion":15.37189566,"eccentricity":0.0007477,"inclination_deg":51.8808,"raan_deg":354.8198,"arg_perigee_deg":208.8532,"mean_anomaly_deg":151.2042,"bstar":0.00065054,"rev_number":415,"period_min":93.677450839528,"perigee_km":449.31589686001,"apogee_km":459.53330948139,"semimajor_km":6832.5616031707,"source":"CELESTRAK","updated_at":"2026-05-25T13:38:08.646554Z"}}}